Regional Weather Roundup
Issued by NWS

Home | Current Version | Previous Version | Graphics & Text | Print | Product List | Glossary On
Versions: 1 2 3 4 5 6 7 8 9 10 11 12 13 14 15 16 17 18 19 20 21 22 23 24 25 26 27 28 29 30 31 32 33 34 35 36 37 38 39 40 41 42 43 44 45 46 47 48 49 50
000
ASUS45 KABQ 271010
RWRNM
WEATHER ROUNDUP FOR NEW MEXICO
NATIONAL WEATHER SERVICE ALBUQUERQUE NM
300 AM MST TUE JAN 27 2015

NOTE: "FAIR" MEANS FEW OR NO CLOUDS BELOW 12,000 FEET AGL WITH NO
       SIGNIFICANT WEATHER OR OBSTRUCTIONS TO VISION.

      THIS PRODUCT IS RELEASED AS TWO VERSIONS.  ONE VERSION NEAR
      THE TOP OF THE HOUR CONTAINING PRELIMINARY DATA FROM ALBUQUERQUE
      AND OTHER STATIONS.  A FINAL VERSION WITH ADDITIONAL DATA IS
      ISSUED ABOUT 10 MINUTES AFTER THE HOUR.

NMZ501-503-504-510>518-271100-
NORTHWEST PLATEAU/NORTHCENTRAL MOUNTAINS

CITY           SKY/WX    TMP DP  RH WIND       PRES   REMARKS
FARMINGTON     CLEAR     37  24  59 E14       30.32F WCI  28
LOS ALAMOS     PTCLDY    40  24  53 CALM      30.40F
SANTA FE       PTCLDY    35  26  69 N14       30.36S WCI  26
TAOS           PTCLDY    28  21  74 N7        30.41S WCI  21
ANGEL FIRE     FAIR      15  13  92 CALM      30.45F

$$
NMZ402-403-502-505>509-271100-
WESTCENTRAL MOUNTAINS/SOUTHWEST MOUNTAINS

CITY           SKY/WX    TMP DP  RH WIND       PRES   REMARKS
GALLUP         CLEAR     26  22  84 CALM      30.34S
GRANTS         CLEAR     25  23  93 NW13      30.37F WCI  13
SILVER CITY    CLOUDY    45  32  61 N10       30.35S

$$
NMZ407-409-411-412-271100-
SOUTHERN DESERTS

CITY           SKY/WX    TMP DP  RH WIND       PRES   REMARKS
LORDSBURG      CLOUDY    45  32  61 CALM      30.29S
DEMING         CLOUDY    47  32  56 NW3       30.30F
LAS CRUCES     CLOUDY    45  38  77 CALM      30.31S
HOLLOMAN AFB   MOCLDY    33  29  86 N6        30.28F WCI  28
ALAMOGORDO     PTCLDY    36  28  75 E6        30.30S WCI  31
T OR C         MOCLDY    42  28  57 N5        30.30S

$$
NMZ519>523-271100-
CENTRAL VALLEYS/CENTRAL HIGHLANDS

CITY           SKY/WX    TMP DP  RH WIND       PRES   REMARKS
ALBUQUERQUE    PTCLDY    39  27  62 N3        30.34S
DOUBLE EAGLE   PTCLDY    32  24  74 N6        30.35S WCI  26
MORIARTY ARPT  FAIR      25  23  91 N5        30.37S WCI  19
CLINES CORNERS PTCLDY    42  21  43 NW6       30.35F
BELEN          FAIR      30  27  87 NW8       30.34S WCI  22
SOCORRO        FAIR      34  29  80 NW7       30.33F WCI  28

$$
NMZ524>526-539-540-271100-
SOUTHCENTRAL MOUNTAINS

CITY           SKY/WX    TMP DP  RH WIND       PRES   REMARKS
RUIDOSO        PTCLDY    39  16  38 W5        30.37F

$$
NMZ527>531-271100-
NORTHEAST HIGHLANDS/NORTHEAST PLAINS

CITY           SKY/WX    TMP DP  RH WIND       PRES   REMARKS
LAS VEGAS      PTCLDY    37  22  54 CALM      30.36F
RATON          CLEAR     29  23  78 NE5       30.32F WCI  24
CLAYTON        PTCLDY    44  27  51 W8        30.24F

$$
NMZ532>537-271100-
EASTCENTRAL PLAINS

CITY           SKY/WX    TMP DP  RH WIND       PRES   REMARKS
TUCUMCARI      LGT RAIN  36  30  79 W6        30.25F WCI  31
CANNON AFB     PTCLDY    39  29  67 N9        30.25F WCI  33
CLOVIS AIRPORT PTCLDY    37  28  70 NW7       30.25F WCI  32

$$
NMZ028-029-538-271100-
SOUTHEAST PLAINS

CITY           SKY/WX    TMP DP  RH WIND       PRES   REMARKS
ROSWELL        PTCLDY    39  32  76 N6        30.27S WCI  35
ARTESIA        PTCLDY    34  34 100 N10       30.28S WCI  26
CARLSBAD       CLEAR     36  31  82 W3        30.25S
HOBBS          PTCLDY    39  30  70 NW9       30.26S WCI  33


$$



USA.gov is the U.S. government's official web portal to all federal, state and local government web resources and services.